#timestamp,LO_Frequency,Hit,StdDev 
1557867615.3,286047016.3,N
1557867635.2,286047021.1,N
1557867655.9,286047021.1,N
1557867675.7,286047013.1,N
1557867695.6,286047017.4,N
1557867715.4,286047017.0,N
1557867735.3,286047017.6,N
1557867755.1,286047020.3,N
1557867756.0,286047020.3,N
1557867775.8,286047028.0,N
1557867795.7,286047029.5,N
1557867815.5,286047035.0,Y
1557867835.4,286047026.3,P
1557867855.2,286047024.4,N
1557867875.0,286047028.3,P
1557867875.9,286047028.3,Y
1557867895.8,286047008.9,P
1557867915.6,286047010.0,N
1557867935.5,286047001.3,N
1557867955.3,286046998.1,N
1557867975.1,286047001.8,N
1557867995.9,286047005.5,N
1557868015.7,286047002.7,N
1557868035.5,286047004.2,N
1557868055.4,286047003.2,N
1557868075.2,286047008.2,N
1557868095.1,286047008.5,N
1557868096.0,286047008.5,N
1557868115.8,286047008.8,N
1557868135.6,286047010.9,N
1557868155.5,286047014.6,N
1557868175.3,286047021.2,Y
1557868195.2,286047013.4,P
1557868215.9,286047010.0,P
1557868235.7,286047018.7,P
1557868255.6,286047021.3,Y
1557868275.4,286047009.4,P
1557868295.3,286047012.1,P
1557868315.1,286047010.9,P
1557868316.0,286047010.9,Y
1557868335.8,286047000.2,P
1557868355.7,286046999.6,N
1557868375.5,286046991.7,N
1557868395.4,286047000.6,N
1557868415.2,286047000.8,N
1557868435.0,286046996.1,N
1557868435.9,286046996.1,N
1557868455.8,286046999.1,N
1557868475.6,286047003.3,N
1557868495.4,286047004.8,N
1557868515.3,286047002.4,N
1557868535.1,286047001.7,N
1557868555.9,286047005.4,N
1557868575.7,286047008.7,N
1557868595.5,286047008.3,N
1557868615.4,286047009.0,N
1557868635.2,286047009.5,N
1557868655.0,286047009.4,N
1557868656.0,286047009.4,N
1557868675.8,286047013.6,N
1557868695.6,286047013.4,N
1557868715.5,286047011.7,N
1557868735.3,286047009.9,N
1557868755.1,286047010.8,N
1557868775.9,286047008.2,N
1557868795.7,286047012.5,N
1557868815.6,286047005.3,N
1557868835.4,286047008.4,N
1557868855.2,286047009.4,N
1557868875.1,286047013.1,N
1557868876.0,286047013.1,N
1557868895.8,286047017.1,N
1557868915.7,286047008.2,N
1557868935.5,286047011.3,N
1557868955.3,286047016.0,Y
1557868975.2,286047013.1,P
1557868995.0,286047015.3,P
1557868995.9,286047015.3,P
1557869015.8,286047012.3,Y
1557869035.6,286046997.5,P
1557869055.4,286047003.8,N
1557869075.3,286046999.3,N
1557869095.1,286046996.1,N
1557869115.9,286046997.5,N
1557869135.7,286046989.8,N
1557869155.5,286046991.5,N
1557869175.4,286046994.8,N
1557869195.2,286046999.9,N
1557869215.0,286046998.3,N
1557869215.9,286046998.3,N
1557869235.8,286047004.1,N
1557869255.6,286047008.3,N
1557869275.5,286047002.5,N
1557869295.3,286047004.5,N
1557869315.1,286047003.0,N
1557869335.9,286047009.6,N
1557869355.7,286047008.6,N
1557869375.6,286047012.3,N
1557869395.4,286047013.8,N
1557869415.2,286047010.8,N
1557869435.1,286047001.4,N
1557869436.0,286047001.4,N
1557869455.8,286047004.7,N
1557869475.7,286047007.2,N
1557869495.5,286047009.4,N
1557869515.3,286047010.4,N
1557869535.2,286047006.6,N
1557869555.9,286047006.8,N
1557869575.7,286047006.1,N
1557869595.6,286047006.6,N
1557869615.4,286047011.3,N
1557869635.3,286047009.9,N
1557869655.1,286047014.0,N
1557869656.0,286047014.0,N
1557869675.8,286047012.9,N
1557869695.7,286047007.8,N
1557869715.5,286047003.7,N
1557869735.4,286047003.9,N
1557869755.2,286047007.2,N
1557869775.0,286047001.6,N
1557869775.9,286047001.6,N
1557869795.8,286046999.9,N
1557869815.6,286047001.6,N
1557869835.4,286047004.9,N
1557869855.3,286047005.7,N
1557869875.1,286047001.6,N
1557869895.9,286047005.0,N
1557869915.7,286047012.2,N
1557869935.5,286047007.8,N
1557869955.4,286046997.3,N
1557869975.2,286046999.2,N
1557869995.1,286047003.5,N
1557869996.0,286047003.5,N
1557870015.8,286047006.0,N
1557870035.6,286047009.9,N
1557870055.5,286047016.7,Y
1557870075.3,286047012.2,P
1557870095.1,286047013.7,P
1557870115.9,286047013.0,P
1557870135.7,286047012.6,Y
1557870155.6,286047006.0,P
1557870175.4,286047001.0,N
1557870195.2,286047006.0,N
1557870215.1,286047008.6,N
1557870216.0,286047008.6,N
1557870235.8,286047005.0,N
1557870255.7,286047002.6,N
1557870275.5,286047006.3,N
1557870295.3,286047007.6,N
1557870315.2,286047015.6,Y
1557870335.0,286047007.9,P
1557870335.9,286047007.9,P
1557870355.8,286047006.3,P
1557870375.6,286047003.7,Y
1557870395.4,286046995.3,P
1557870415.3,286046993.7,N
1557870435.1,286046996.7,N
1557870455.8,286046995.9,N
1557870475.5,286046992.1,N
1557870495.3,286046987.7,N
1557870515.1,286046994.4,N
1557870535.9,286046991.1,N
1557870555.7,286046989.0,N
1557870575.5,286046995.0,N
1557870595.4,286047000.9,N
1557870615.2,286047002.2,N
1557870635.1,286047000.3,N
1557870636.0,286047000.3,N
1557870655.8,286046997.1,N
1557870675.6,286047004.2,N
1557870695.5,286046995.5,N
1557870715.3,286046993.6,N
1557870735.1,286046996.8,N
1557870755.9,286047001.5,N
1557870775.7,286046996.5,N
1557870795.6,286047002.6,N
1557870815.4,286047002.0,N
1557870835.2,286047005.4,N
1557870855.1,286047009.0,N
1557870856.0,286047009.0,N
1557870875.8,286047011.8,N
1557870895.7,286047011.9,N
1557870915.5,286047008.3,N
1557870935.3,286047000.4,N
1557870955.2,286047002.9,N
1557870975.0,286047006.9,N
1557870975.9,286047006.9,N
1557870995.7,286047012.7,N
1557871015.6,286047008.3,N
1557871035.4,286047016.8,N
1557871055.3,286047010.6,N
1557871075.1,286047017.1,N
1557871076.0,286047017.1,N
1557871095.8,286047016.7,N
1557871115.7,286047016.7,N
1557871135.5,286047012.1,N
1557871155.4,286047011.4,N
1557871175.2,286047013.8,N
1557871195.0,286047011.7,N
1557871195.9,286047011.7,N
